Temp
-0 -0 0 0 1 1 1 1 1 1 1 1 1 1 1 1 2 2 2 2 2 3 3 3 4 4 5 5 5 6 6 7 7 7 7 7 7 7 7 7 7 7 8 8 8 8 9 9 9 9 9 9 9 10 10 11 11 11 11 12 12 12 12 12 12 12 12 11 12
-1 -0 -0 0 0 1 1 1 1 1 1 1 1 1 2 2 2 2 3 3 3 3 3 4 4 4 4 5 5 5 6 6 6 7 7 7 7 7 7 7 7 7 7 8 8 8 9 9 9 9 9 9 9 9 10 11 11 11 11 12 12 12 12 12 12 12 12 11 11
-1 -0 0 0 0 0 1 1 1 1 1 2 2 2 2 2 3 3 3 3 3 3 4 4 4 4 4 5 5 5 5 6 6 6 7 7 7 6 6 6 6 7 7 8 8 8 9 9 9 9 9 9 9 9 9 10 11 11 11 11 12 12 12 12 12 11 11 11 11
-0 -0 0 0 0 1 1 1 2 2 2 2 2 3 3 3 3 3 3 3 3 4 4 4 4 4 5 5 5 5 5 5 6 6 6 6 6 6 6 6 6 7 7 7 8 8 8 9 9 9 9 9 9 9 9 10 11 11 11 11 12 12 12 12 11 11 11 11 11
-0 -0 0 0 1 1 2 2 2 2 3 3 3 3 3 3 3 3 3 3 4 4 4 4 4 5 5 5 5 5 5 5 5 6 6 6 6 6 6 6 6 6 7 7 8 8 8 9 9 9 9 9 9 9 9 10 11 11 11 11 12 12 12 12 11 11 11 11 11
-1 -0 0 1 1 2 2 2 2 3 3 3 3 3 3 3 3 3 4 4 4 4 5 4 4 4 4 5 5 5 5 5 5 5 6 6 6 6 6 6 6 6 6 7 7 8 9 9 9 9 9 9 9 9 9 10 11 11 11 12 11 11 11 11 11 11 11 11 11
-1 -0 0 1 2 2 2 2 2 3 3 3 3 3 4 4 4 4 4 4 4 4 4 4 4 4 4 4 4 4 5 5 5 5 5 5 6 6 6 6 6 6 6 6 7 7 8 8 9 9 9 9 9 9 10 10 11 11 11 11 11 11 11 11 11 11 11 11 11
-1 0 1 2 2 2 3 3 3 3 3 3 4 4 5 5 5 5 5 5 5 5 4 4 4 4 4 4 4 4 4 5 5 5 5 5 5 5 5 5 6 6 6 6 7 7 7 8 8 9 9 9 9 9 10 10 11 11 11 11 11 11 11 11 11 11 11 11 11
-0 1 1 2 2 3 3 3 3 3 4 4 5 5 5 6 6 6 6 5 5 5 5 4 4 4 4 4 4 4 4 4 5 5 5 5 5 5 5 5 5 5 6 6 7 7 7 7 8 8 9 9 9 9 10 11 11 11 11 11 11 11 11 11 11 11 11 11 11
0 1 2 2 3 3 3 3 3 4 4 5 5 5 6 6 6 6 6 6 6 5 5 4 4 4 4 4 4 4 5 5 5 5 5 5 5 5 5 5 5 5 6 6 6 7 7 7 7 8 8 9 9 9 10 11 11 11 11 11 11 11 11 11 11 11 11 11 12
0 1 2 2 3 3 3 3 4 4 4 5 5 5 6 6 6 6 6 6 6 5 5 5 5 4 4 4 4 4 5 5 5 5 5 5 5 5 5 5 5 5 5 6 6 7 7 7 7 8 8 9 9 9 10 11 11 11 11 11 11 11 11 11 11 11 11 11 12
0 1 2 3 3 3 3 3 4 4 5 5 5 5 5 6 6 6 6 6 6 5 5 5 5 5 4 4 4 5 5 5 5 5 5 5 5 5 5 5 5 5 5 5 6 6 7 7 8 8 8 8 9 9 9 10 11 11 11 11 11 11 11 11 11 11 11 11 12
0 1 2 3 3 3 3 3 4 5 5 5 6 6 6 6 6 6 6 6 6 6 5 5 5 5 4 4 4 5 5 5 5 5 5 4 5 5 5 5 5 5 5 5 6 6 7 7 8 8 8 8 8 9 9 10 11 11 11 11 11 11 10 11 11 11 11 11 11
0 1 2 2 3 3 3 4 4 5 5 6 6 6 7 7 7 6 6 6 6 6 6 6 5 4 4 4 4 4 4 5 5 4 4 4 4 4 4 4 4 5 5 5 6 6 7 7 8 8 8 8 8 9 9 10 11 11 11 11 11 11 11 10 11 11 11 11 11
1 1 2 2 3 3 4 4 4 5 5 6 6 7 7 7 6 6 6 6 6 6 6 5 5 4 4 4 4 4 4 4 4 4 4 4 4 4 4 4 4 4 5 5 6 7 7 8 8 8 8 8 8 9 9 10 11 11 11 11 11 11 11 10 10 11 11 11 11
1 1 2 2 3 3 4 4 5 5 5 6 6 6 6 6 6 6 6 6 6 6 5 5 5 4 4 4 4 4 4 4 4 4 4 4 4 4 4 4 4 4 5 5 6 7 8 8 8 8 8 8 9 9 9 10 11 11 11 11 11 11 11 11 11 11 11 11 11
1 1 2 3 3 4 4 4 5 5 5 6 6 6 6 6 6 6 6 6 6 5 5 4 4 4 4 4 4 4 4 3 3 3 4 4 4 4 4 4 4 4 5 5 6 7 8 8 8 8 8 8 9 9 10 10 11 11 11 11 11 12 11 11 11 11 11 11 12
1 1 2 3 4 4 4 5 5 5 6 6 6 6 6 6 6 6 6 6 6 5 4 4 4 4 4 4 4 3 3 3 3 3 3 4 4 4 4 4 4 4 5 6 7 8 8 8 8 8 8 8 9 9 10 10 11 11 11 11 11 11 11 11 11 11 11 12 12
0 1 2 3 4 4 5 5 5 6 6 6 6 6 6 6 6 6 6 6 6 5 4 4 3 3 3 3 3 3 3 3 3 3 3 3 3 4 4 4 4 4 5 6 8 8 8 8 8 9 9 8 9 9 10 10 10 11 11 11 11 11 11 11 11 12 12 12 12
-0 1 2 3 3 4 5 5 5 6 6 6 6 6 6 6 6 6 6 6 5 5 4 3 3 2 2 3 3 3 3 3 3 3 3 3 3 4 4 4 5 5 6 8 8 8 8 8 9 9 9 8 9 9 9 10 10 11 11 11 11 11 11 11 12 12 12 12 12
-1 0 1 2 3 4 5 5 5 6 6 6 5 6 6 6 6 6 6 6 5 4 4 3 3 2 2 2 2 2 2 2 2 3 3 3 4 4 4 5 5 6 8 8 8 8 8 8 9 9 9 9 9 9 9 10 10 10 11 11 11 11 11 12 12 12 12 12 11
-1 -0 1 2 3 3 4 5 5 6 6 5 5 6 6 6 6 6 6 6 5 4 4 3 3 3 2 3 3 3 3 3 3 3 3 4 5 5 5 6 7 7 8 8 8 8 8 9 9 9 9 9 9 9 9 10 10 10 11 11 11 11 11 12 12 12 12 11 11
-1 -1 0 1 2 3 4 5 5 5 5 5 5 6 6 6 6 6 6 6 5 5 4 4 3 3 3 3 3 3 3 3 4 4 4 5 5 5 6 7 8 8 8 7 8 8 8 9 9 9 9 9 9 9 9 10 10 10 11 11 11 11 11 11 12 12 11 11 11
-2 -1 -0 1 2 2 3 4 5 5 5 5 5 6 6 6 6 6 6 6 6 5 5 5 4 4 4 4 4 4 4 4 5 4 5 5 6 6 7 8 8 7 7 8 8 8 9 9 9 9 9 9 9 9 10 10 10 10 10 11 11 11 11 11 11 11 11 11 11
-2 -1 -1 0 1 2 3 4 4 5 5 5 5 6 6 6 6 6 6 6 6 6 6 5 5 5 4 4 4 4 4 5 5 5 6 6 7 7 7 7 7 8 8 8 8 9 9 9 9 9 9 9 9 10 10 10 10 10 10 11 11 11 11 11 11 11 11 11 11
-2 -2 -1 0 1 2 2 3 4 5 5 5 5 6 6 6 6 7 7 7 6 6 6 6 6 6 6 5 5 5 5 6 6 7 7 7 7 7 7 7 8 8 8 9 9 9 9 9 9 9 9 9 9 10 10 10 10 10 10 11 11 11 11 11 11 11 11 11 11
-2 -2 -1 -0 1 1 2 3 4 4 5 5 5 5 6 6 6 7 7 7 6 6 6 7 6 6 7 7 6 6 6 7 7 7 7 7 7 7 7 8 8 8 8 9 9 9 8 9 9 9 9 9 10 10 10 10 10 10 11 11 11 11 11 11 11 11 11 11 11
-2 -1 -1 -0 1 1 2 3 3 4 5 5 5 5 6 6 7 7 7 7 7 7 7 7 7 7 7 7 7 7 7 7 7 7 7 7 7 7 8 8 8 8 9 9 9 9 8 8 9 9 9 10 10 10 10 10 10 10 11 11 11 11 11 11 10 10 10 11 11
-2 -1 -1 -0 0 1 2 2 3 4 4 4 5 5 6 6 7 7 7 7 7 7 7 7 7 7 7 7 7 7 7 7 7 7 7 7 8 8 8 8 8 9 9 9 9 8 8 8 9 9 9 10 10 10 10 10 10 10 11 11 11 10 10 10 10 10 10 10 11
-2 -2 -1 -0 0 1 1 2 3 3 4 4 5 5 6 6 7 7 7 7 7 7 7 7 7 7 7 7 7 7 8 8 8 8 8 8 8 8 8 8 8 9 9 9 8 8 8 9 9 9 9 9 10 10 10 10 10 11 11 10 10 10 10 10 11 11 11 10 11
-2 -2 -1 -1 -0 1 1 2 2 3 4 4 4 5 6 6 7 7 7 7 7 7 7 8 7 7 8 8 7 8 8 8 8 8 8 8 8 8 8 8 8 9 9 9 8 8 8 9 9 9 9 9 10 10 10 10 10 11 11 10 10 10 11 11 11 11 11 11 10
-2 -2 -1 -1 -0 0 1 2 2 3 3 4 4 5 6 6 6 7 7 7 7 7 7 8 8 8 8 8 8 8 8 8 8 8 8 8 8 8 8 8 8 9 9 8 8 8 8 9 9 9 9 9 9 10 10 10 10 10 11 10 10 10 11 11 11 11 11 10 10
-2 -2 -2 -1 -1 0 1 1 2 2 3 4 4 5 6 6 6 6 7 7 7 7 7 7 8 8 8 8 8 8 9 9 9 9 9 8 8 8 8 8 8 8 9 8 8 8 9 9 9 9 9 9 9 9 10 10 10 10 10 10 10 10 11 11 11 11 10 10 10
-3 -3 -2 -2 -1 -0 0 1 2 2 3 3 4 5 5 6 6 6 7 7 7 7 7 7 7 8 8 8 8 8 9 9 9 9 9 9 8 8 8 8 8 8 8 8 8 8 9 9 8 8 8 8 9 9 9 10 10 10 10 10 10 10 11 11 11 10 10 10 10
-3 -3 -3 -2 -1 -1 -0 1 1 2 2 3 4 4 5 6 6 6 6 6 6 7 7 7 7 7 7 8 8 8 8 8 8 8 8 8 8 8 8 8 8 8 8 8 8 9 9 8 8 8 8 8 8 9 9 9 9 10 10 10 10 10 11 11 10 10 10 10 10
-4 -3 -3 -3 -2 -1 -0 0 1 1 2 3 3 4 4 5 5 6 6 6 6 6 7 7 7 7 7 7 8 8 8 8 8 8 8 8 8 8 8 8 8 8 8 8 8 8 8 8 8 8 8 8 8 8 9 9 9 9 9 10 10 10 10 10 10 10 10 10 10
-4 -4 -3 -3 -2 -2 -1 -0 1 1 2 2 3 4 4 5 5 5 5 5 5 6 6 7 7 7 7 7 7 7 8 8 8 8 8 8 8 8 8 8 8 8 8 8 8 8 8 8 8 8 8 8 9 9 9 9 9 9 9 9 9 9 10 10 10 10 10 10 10
-4 -4 -4 -3 -3 -2 -2 -1 0 1 1 2 2 3 4 4 5 5 5 5 5 6 6 6 7 7 7 7 7 7 7 8 8 8 8 8 8 8 8 8 8 8 8 8 8 8 8 8 8 8 9 9 9 9 9 9 9 9 9 9 9 9 9 9 9 9 10 10 10
-4 -4 -4 -4 -3 -3 -2 -1 -1 -0 0 1 2 2 3 4 4 4 5 5 5 5 6 6 6 7 7 7 7 8 8 8 8 8 8 8 8 8 8 8 8 8 8 8 8 8 8 8 8 9 9 9 9 9 9 9 9 9 9 9 9 9 9 9 9 9 9 10 10
-4 -4 -4 -4 -4 -3 -3 -2 -2 -1 -0 0 1 2 2 3 3 4 4 4 5 5 5 5 6 6 6 7 7 8 8 8 8 8 8 8 8 8 8 8 8 8 8 8 8 8 8 8 8 8 9 9 9 9 9 9 8 8 8 8 8 8 9 9 9 9 9 9 10
-4 -4 -4 -4 -4 -4 -3 -3 -3 -2 -1 -0 0 1 2 2 2 3 3 4 4 4 5 5 5 5 6 6 7 7 8 8 8 8 8 8 8 8 8 8 8 8 8 8 8 8 8 8 8 8 8 8 8 9 9 9 8 8 8 8 8 8 8 9 9 9 9 9 10
Height
1360 1360 1360 1360 1359 1359 1359 1358 1358 1358 1358 1358 1357 1357 1357 1357 1356 1355 1355 1355 1354 1354 1354 1354 1354 1354 1354 1355 1356 1357 1358 1359 1360 1361 1362 1363 1364 1364 1366 1367 1368 1369 1370 1371 1372 1374 1375 1377 1378 1379 1380 1381 1382 1383 1384 1385 1387 1388 1390 1392 1394 1396 1399 1400 1402 1404 1405 1407 1409
1358 1357 1357 1357 1357 1357 1356 1355 1355 1355 1355 1354 1354 1354 1354 1353 1353 1352 1351 1351 1351 1350 1350 1350 1351 1351 1351 1352 1353 1354 1354 1355 1356 1358 1359 1360 1361 1362 1363 1364 1365 1366 1367 1369 1369 1371 1372 1373 1375 1376 1377 1379 1380 1380 1381 1382 1384 1386 1387 1389 1391 1393 1395 1397 1399 1400 1403 1405 1407
1355 1355 1354 1354 1354 1354 1354 1353 1352 1352 1351 1351 1351 1351 1350 1350 1349 1349 1348 1348 1347 1347 1347 1347 1347 1348 1348 1349 1349 1350 1351 1352 1353 1354 1355 1356 1357 1359 1360 1361 1362 1363 1364 1365 1367 1368 1369 1370 1372 1373 1374 1375 1377 1378 1378 1379 1381 1382 1384 1386 1388 1390 1392 1394 1396 1398 1400 1403 1404
1352 1352 1352 1352 1352 1351 1351 1350 1349 1349 1349 1348 1348 1348 1347 1346 1346 1345 1344 1344 1344 1344 1344 1344 1344 1344 1345 1345 1346 1346 1347 1348 1349 1350 1351 1352 1354 1355 1356 1358 1359 1360 1361 1363 1364 1365 1366 1368 1369 1369 1371 1372 1374 1375 1376 1376 1377 1379 1380 1383 1384 1387 1389 1390 1393 1395 1398 1400 1402
1350 1349 1349 1349 1349 1348 1348 1347 1346 1346 1345 1345 1345 1344 1343 1343 1342 1341 1341 1340 1340 1339 1339 1340 1340 1341 1341 1342 1342 1343 1344 1344 1345 1346 1347 1348 1349 1351 1353 1354 1356 1357 1358 1359 1361 1363 1364 1365 1365 1366 1368 1370 1372 1373 1373 1373 1374 1375 1377 1379 1381 1384 1386 1388 1390 1393 1395 1398 1400
1347 1347 1346 1346 1346 1345 1345 1344 1343 1343 1342 1342 1341 1340 1339 1339 1338 1338 1337 1336 1335 1335 1335 1336 1336 1337 1337 1338 1339 1339 1340 1341 1342 1343 1344 1344 1346 1348 1349 1351 1352 1354 1354 1356 1357 1359 1361 1362 1363 1363 1365 1367 1369 1370 1370 1371 1371 1372 1374 1376 1379 1382 1384 1387 1389 1391 1394 1396 1398
1344 1344 1344 1343 1343 1343 1342 1341 1340 1339 1339 1338 1337 1336 1335 1335 1334 1334 1333 1332 1332 1332 1332 1332 1332 1332 1333 1334 1334 1335 1336 1337 1338 1339 1340 1341 1342 1344 1346 1347 1349 1350 1352 1353 1354 1355 1357 1359 1360 1361 1362 1364 1366 1367 1368 1368 1368 1369 1371 1374 1378 1380 1383 1385 1388 1389 1391 1394 1396
1342 1342 1341 1341 1340 1339 1339 1338 1337 1336 1335 1334 1333 1332 1331 1331 1331 1330 1329 1329 1329 1328 1328 1328 1327 1328 1328 1329 1330 1331 1332 1334 1335 1336 1337 1338 1339 1341 1342 1344 1346 1347 1349 1350 1351 1352 1354 1356 1358 1359 1360 1361 1363 1365 1366 1365 1365 1367 1370 1374 1377 1379 1381 1383 1385 1387 1389 1391 1394
1340 1339 1339 1338 1338 1337 1336 1335 1334 1333 1332 1331 1330 1329 1329 1328 1327 1326 1326 1325 1324 1324 1324 1324 1324 1324 1324 1325 1326 1327 1329 1330 1331 1332 1334 1335 1336 1337 1339 1341 1343 1344 1345 1347 1349 1350 1351 1353 1355 1356 1357 1359 1361 1363 1363 1363 1363 1365 1369 1373 1375 1378 1379 1381 1383 1384 1387 1389 1392
1338 1337 1336 1336 1335 1334 1333 1332 1330 1329 1329 1328 1326 1326 1325 1325 1324 1323 1322 1321 1321 1321 1320 1320 1320 1321 1321 1322 1322 1324 1325 1326 1328 1329 1330 1332 1333 1334 1336 1338 1339 1341 1342 1344 1346 1347 1349 1350 1352 1353 1355 1356 1358 1360 1361 1361 1360 1363 1367 1370 1373 1375 1377 1379 1381 1383 1385 1388 1391
1335 1334 1334 1333 1332 1331 1330 1329 1328 1327 1326 1325 1324 1323 1322 1321 1321 1320 1319 1318 1318 1317 1317 1317 1317 1318 1318 1318 1319 1320 1321 1323 1324 1326 1327 1328 1329 1331 1333 1334 1336 1338 1340 1341 1343 1345 1346 1348 1349 1350 1352 1354 1355 1357 1359 1359 1359 1361 1365 1368 1370 1372 1375 1378 1380 1382 1384 1386 1389
1333 1332 1332 1331 1330 1329 1328 1326 1325 1324 1323 1323 1322 1321 1320 1319 1318 1317 1316 1316 1315 1314 1314 1314 1314 1314 1314 1315 1316 1317 1318 1319 1321 1323 1324 1325 1327 1328 1330 1332 1334 1335 1337 1339 1340 1342 1344 1345 1346 1348 1349 1351 1353 1355 1356 1356 1357 1359 1363 1366 1368 1370 1372 1375 1377 1379 1381 1384 1386
1331 1330 1329 1329 1328 1327 1325 1324 1323 1322 1321 1320 1319 1318 1317 1316 1315 1315 1314 1313 1312 1311 1311 1311 1311 1311 1311 1312 1313 1314 1315 1316 1318 1319 1321 1322 1324 1325 1327 1329 1331 1333 1334 1336 1338 1339 1341 1342 1344 1345 1347 1349 1351 1353 1354 1354 1355 1357 1360 1364 1366 1368 1370 1373 1375 1377 1379 1381 1383
1329 1328 1327 1326 1325 1324 1323 1321 1320 1319 1318 1317 1316 1315 1314 1313 1312 1312 1311 1310 1309 1308 1307 1307 1307 1308 1308 1309 1309 1311 1312 1314 1315 1317 1318 1319 1321 1323 1325 1326 1328 1330 1331 1333 1335 1337 1338 1340 1341 1343 1344 1347 1348 1350 1352 1353 1353 1355 1358 1361 1364 1367 1369 1371 1373 1375 1377 1378 1380
1326 1325 1325 1324 1323 1322 1320 1319 1318 1316 1315 1314 1313 1312 1311 1310 1309 1309 1308 1306 1304 1304 1303 1303 1303 1304 1305 1306 1307 1308 1309 1311 1312 1314 1315 1317 1319 1320 1322 1324 1326 1327 1329 1331 1333 1334 1336 1338 1339 1341 1343 1344 1346 1348 1349 1351 1351 1353 1356 1359 1362 1364 1367 1369 1371 1373 1374 1376 1378
1324 1323 1322 1321 1320 1319 1318 1316 1315 1314 1313 1312 1311 1310 1309 1307 1306 1305 1304 1302 1301 1300 1299 1299 1300 1300 1302 1303 1304 1305 1307 1308 1309 1311 1313 1314 1316 1318 1320 1322 1323 1325 1327 1329 1330 1332 1334 1336 1338 1339 1341 1342 1344 1346 1347 1348 1349 1352 1354 1357 1359 1362 1365 1367 1369 1370 1373 1375 1378
1321 1321 1320 1319 1318 1316 1315 1314 1313 1312 1311 1310 1309 1307 1306 1304 1303 1302 1300 1299 1297 1297 1296 1296 1297 1298 1299 1299 1301 1302 1304 1305 1307 1309 1310 1312 1314 1316 1318 1319 1321 1323 1325 1327 1329 1330 1333 1335 1336 1337 1339 1340 1342 1344 1345 1347 1348 1350 1353 1355 1357 1360 1363 1365 1367 1369 1372 1374 1376
1319 1318 1317 1316 1315 1314 1313 1312 1311 1310 1309 1308 1306 1305 1303 1302 1300 1299 1297 1295 1294 1294 1294 1294 1294 1295 1296 1297 1298 1299 1301 1303 1304 1306 1308 1309 1311 1313 1315 1317 1319 1321 1323 1325 1327 1329 1331 1333 1334 1335 1336 1338 1339 1342 1344 1346 1347 1349 1351 1353 1355 1358 1361 1364 1366 1369 1371 1373 1374
1317 1315 1314 1314 1313 1311 1310 1310 1309 1308 1307 1306 1304 1303 1301 1299 1298 1296 1294 1292 1292 1291 1291 1291 1291 1292 1293 1294 1296 1297 1299 1300 1302 1304 1306 1308 1309 1311 1313 1315 1316 1319 1320 1323 1325 1328 1329 1330 1332 1333 1334 1336 1338 1340 1343 1344 1346 1348 1350 1352 1354 1357 1359 1362 1365 1367 1369 1371 1373
1314 1313 1312 1311 1310 1309 1309 1308 1307 1306 1305 1304 1302 1300 1299 1297 1295 1293 1291 1290 1290 1289 1289 1289 1289 1289 1290 1292 1294 1295 1297 1299 1300 1302 1304 1306 1308 1309 1311 1312 1314 1316 1319 1321 1324 1325 1327 1328 1329 1331 1333 1334 1337 1339 1341 1344 1345 1347 1349 1352 1354 1356 1359 1361 1364 1366 1368 1370 1372
1313 1311 1310 1309 1308 1307 1307 1306 1305 1304 1303 1302 1300 1299 1297 1295 1293 1291 1290 1289 1288 1288 1287 1286 1286 1287 1288 1289 1291 1293 1295 1297 1299 1301 1303 1304 1306 1307 1309 1311 1313 1315 1318 1320 1322 1323 1324 1326 1327 1329 1331 1333 1335 1338 1340 1342 1344 1346 1349 1351 1354 1356 1359 1361 1363 1365 1367 1369 1370
1311 1310 1309 1308 1307 1306 1305 1304 1303 1302 1301 1300 1299 1298 1296 1294 1291 1289 1289 1288 1287 1287 1286 1285 1284 1285 1286 1287 1289 1291 1293 1295 1297 1299 1301 1304 1305 1307 1308 1310 1312 1315 1317 1319 1319 1320 1322 1324 1326 1328 1330 1332 1334 1337 1339 1341 1343 1345 1348 1350 1353 1355 1358 1360 1362 1364 1365 1367 1368
1310 1309 1307 1306 1305 1304 1303 1302 1301 1300 1299 1298 1298 1297 1296 1294 1291 1289 1287 1287 1286 1285 1285 1284 1284 1284 1285 1286 1288 1289 1291 1294 1296 1298 1300 1303 1305 1306 1308 1309 1312 1314 1315 1316 1318 1319 1321 1323 1324 1326 1329 1331 1334 1336 1338 1339 1341 1344 1346 1349 1351 1354 1356 1358 1360 1362 1364 1365 1367
1309 1308 1306 1305 1304 1302 1301 1300 1299 1299 1298 1297 1296 1296 1295 1293 1291 1289 1287 1285 1284 1284 1284 1284 1284 1284 1284 1286 1287 1289 1290 1293 1294 1296 1298 1301 1303 1304 1307 1309 1310 1311 1312 1314 1316 1318 1319 1321 1323 1325 1328 1330 1332 1334 1336 1338 1340 1343 1345 1347 1349 1352 1355 1357 1359 1361 1362 1364 1366
1308 1307 1305 1304 1302 1301 1300 1299 1298 1297 1296 1295 1295 1295 1294 1292 1290 1289 1287 1285 1284 1283 1283 1282 1283 1284 1284 1286 1287 1289 1290 1292 1293 1295 1297 1299 1301 1303 1305 1306 1307 1309 1311 1313 1314 1316 1317 1319 1322 1324 1327 1329 1331 1333 1335 1337 1339 1342 1344 1346 1349 1351 1354 1356 1358 1359 1361 1363 1364
1307 1306 1304 1303 1301 1300 1299 1298 1297 1296 1295 1294 1294 1294 1293 1291 1289 1288 1287 1286 1284 1283 1282 1282 1283 1284 1284 1286 1287 1289 1290 1292 1293 1295 1297 1299 1300 1302 1303 1305 1306 1308 1309 1311 1313 1314 1316 1319 1321 1324 1326 1329 1331 1333 1335 1337 1339 1341 1344 1346 1348 1350 1352 1354 1356 1358 1360 1361 1363
1307 1305 1304 1302 1301 1299 1298 1297 1296 1295 1294 1294 1293 1292 1291 1290 1289 1287 1286 1285 1285 1285 1284 1284 1284 1284 1285 1287 1288 1289 1290 1292 1294 1295 1296 1298 1299 1301 1302 1304 1305 1307 1308 1310 1311 1314 1316 1319 1321 1324 1326 1329 1331 1333 1335 1337 1339 1341 1343 1346 1348 1349 1351 1353 1354 1356 1358 1360 1361
1306 1304 1303 1301 1300 1299 1297 1296 1295 1294 1294 1293 1292 1291 1291 1290 1289 1287 1285 1285 1286 1286 1286 1286 1286 1286 1286 1287 1288 1289 1290 1292 1293 1294 1295 1297 1299 1300 1302 1303 1305 1306 1307 1309 1311 1314 1316 1319 1322 1324 1327 1329 1331 1333 1334 1336 1339 1341 1343 1344 1346 1348 1349 1351 1352 1354 1356 1358 1360
1305 1304 1302 1301 1299 1298 1297 1296 1295 1294 1293 1292 1292 1291 1290 1289 1288 1287 1285 1285 1285 1286 1286 1287 1287 1287 1288 1288 1289 1289 1290 1292 1293 1294 1295 1297 1299 1300 1302 1303 1304 1305 1307 1309 1311 1314 1316 1319 1322 1324 1326 1328 1330 1332 1334 1336 1338 1339 1341 1343 1344 1346 1347 1349 1351 1353 1355 1357 1359
1305 1304 1302 1300 1299 1298 1297 1296 1294 1294 1293 1292 1292 1291 1290 1289 1288 1287 1286 1285 1285 1286 1286 1287 1287 1288 1288 1289 1290 1291 1292 1293 1294 1294 1296 1297 1299 1300 1301 1302 1304 1305 1307 1310 1312 1314 1316 1319 1321 1324 1326 1327 1329 1330 1332 1334 1336 1338 1340 1341 1343 1345 1347 1349 1351 1353 1354 1356 1358
1305 1303 1302 1300 1299 1298 1297 1296 1295 1294 1293 1292 1292 1291 1290 1289 1288 1287 1287 1286 1286 1287 1287 1287 1288 1288 1289 1289 1290 1291 1292 1293 1294 1295 1296 1297 1299 1300 1301 1302 1304 1305 1308 1310 1312 1314 1316 1318 1321 1323 1325 1327 1329 1330 1331 1333 1335 1337 1339 1341 1343 1344 1346 1349 1350 1352 1353 1355 1356
1305 1304 1302 1301 1299 1298 1297 1296 1295 1294 1293 1293 1292 1291 1290 1290 1289 1288 1287 1287 1287 1287 1287 1287 1288 1288 1289 1289 1290 1291 1292 1293 1294 1295 1296 1297 1299 1299 1301 1302 1304 1306 1309 1311 1312 1314 1316 1319 1321 1323 1326 1328 1329 1330 1332 1333 1334 1336 1338 1340 1342 1344 1346 1347 1349 1350 1352 1354 1355
1305 1304 1303 1301 1300 1299 1297 1296 1295 1294 1294 1293 1292 1292 1291 1290 1289 1289 1288 1288 1288 1287 1287 1288 1288 1288 1289 1289 1290 1291 1291 1292 1293 1294 1296 1297 1298 1299 1301 1303 1304 1307 1309 1311 1313 1314 1316 1319 1322 1324 1327 1329 1330 1331 1332 1333 1334 1335 1337 1339 1341 1343 1344 1346 1347 1349 1350 1352 1354
1306 1304 1303 1302 1300 1299 1298 1297 1296 1295 1294 1294 1293 1292 1292 1291 1290 1289 1289 1289 1289 1288 1288 1288 1289 1289 1289 1290 1290 1291 1291 1292 1293 1294 1296 1297 1299 1300 1302 1304 1305 1308 1310 1311 1313 1315 1317 1319 1322 1324 1327 1329 1330 1331 1331 1332 1333 1334 1336 1338 1339 1341 1342 1344 1345 1347 1349 1351 1352
1306 1305 1304 1302 1301 1299 1298 1297 1296 1296 1295 1294 1294 1293 1293 1292 1291 1290 1290 1290 1290 1290 1289 1289 1290 1290 1290 1290 1291 1291 1292 1292 1294 1295 1296 1298 1299 1300 1302 1304 1306 1308 1310 1312 1314 1315 1317 1319 1322 1324 1327 1328 1329 1330 1331 1331 1332 1334 1334 1336 1338 1339 1341 1343 1344 1346 1348 1349 1350
1307 1305 1304 1303 1301 1300 1299 1298 1297 1296 1295 1295 1294 1294 1293 1293 1292 1292 1291 1291 1291 1291 1291 1291 1291 1291 1291 1292 1292 1292 1293 1294 1294 1296 1297 1299 1300 1301 1303 1305 1307 1309 1311 1313 1314 1316 1318 1320 1322 1324 1326 1327 1329 1329 1330 1331 1332 1333 1334 1335 1336 1338 1340 1341 1343 1345 1346 1348 1349
1307 1306 1305 1304 1302 1301 1299 1299 1298 1297 1296 1295 1295 1294 1294 1294 1293 1293 1292 1292 1292 1292 1292 1292 1292 1292 1293 1293 1294 1294 1294 1295 1296 1297 1298 1300 1301 1303 1304 1306 1308 1310 1313 1314 1315 1317 1319 1320 1322 1324 1325 1327 1328 1329 1329 1330 1331 1332 1333 1334 1336 1337 1339 1340 1342 1344 1345 1347 1348
1308 1307 1306 1304 1303 1302 1301 1299 1298 1298 1297 1296 1295 1295 1295 1294 1294 1294 1293 1293 1293 1294 1294 1294 1294 1294 1294 1295 1295 1295 1296 1297 1298 1299 1299 1301 1302 1304 1305 1307 1309 1311 1313 1315 1316 1318 1319 1321 1323 1324 1325 1327 1328 1328 1329 1330 1331 1332 1333 1334 1335 1337 1338 1339 1341 1343 1344 1345 1346
1309 1308 1306 1305 1304 1303 1302 1300 1299 1299 1298 1297 1296 1296 1295 1295 1295 1294 1294 1294 1294 1295 1295 1295 1295 1295 1296 1296 1297 1297 1298 1299 1299 1300 1301 1302 1304 1305 1306 1308 1309 1311 1313 1315 1317 1319 1320 1322 1323 1324 1325 1326 1327 1328 1329 1330 1330 1331 1332 1334 1335 1336 1337 1339 1340 1341 1342 1344 1344
1310 1309 1308 1306 1305 1304 1303 1301 1300 1300 1299 1298 1298 1297 1297 1296 1296 1296 1295 1295 1295 1296 1296 1296 1297 1297 1297 1298 1298 1299 1299 1300 1301 1301 1302 1304 1305 1306 1307 1309 1310 1312 1314 1315 1317 1319 1320 1322 1323 1323 1324 1325 1327 1328 1329 1329 1330 1331 1332 1333 1334 1335 1336 1337 1338 1339 1340 1342 1343
1312 1310 1309 1307 1306 1305 1304 1303 1302 1301 1300 1299 1299 1299 1298 1298 1298 1297 1297 1296 1296 1297 1297 1298 1298 1299 1299 1299 1299 1300 1300 1301 1302 1303 1304 1305 1306 1307 1308 1310 1311 1312 1314 1315 1317 1318 1320 1321 1322 1323 1324 1325 1326 1327 1328 1329 1330 1331 1332 1332 1333 1334 1335 1336 1337 1338 1339 1340 1341
Wind_Speed
22 22 23 24 26 27 29 31 32 32 32 33 33 33 33 33 34 34 35 35 36 36 37 37 38 38 38 38 38 37 37 36 35 34 33 33 33 34 36 38 39 40 41 42 44 44 45 46 48 51 53 53 48 44 42 43 45 47 49 51 51 50 49 48 48 49 48 46 47
21 21 22 23 24 26 27 29 30 30 30 31 32 32 33 33 34 35 36 36 37 38 38 39 39 40 40 40 40 39 39 38 37 36 35 34 33 33 34 35 36 37 38 40 41 43 45 47 48 50 53 54 50 45 41 42 45 47 49 51 52 52 50 49 49 49 49 48 47
21 21 22 22 23 24 25 27 28 29 30 31 31 32 33 34 35 36 37 37 38 39 40 40 41 41 42 42 41 41 40 39 38 37 36 35 34 34 34 34 35 35 36 36 38 41 44 46 48 50 52 53 51 46 42 42 46 48 49 51 53 53 52 50 49 49 50 49 48
21 21 22 22 22 23 24 26 27 29 30 31 32 33 34 36 37 38 39 40 40 41 42 42 43 43 43 42 42 42 41 40 39 38 37 36 35 35 35 35 35 35 34 34 35 38 42 44 47 49 51 52 51 46 42 43 47 49 50 52 53 54 53 50 49 48 49 49 48
21 21 21 22 22 23 24 26 27 28 29 30 32 34 35 37 38 39 40 41 42 43 44 44 44 43 43 43 43 42 42 41 40 38 37 36 35 35 36 37 37 37 35 34 34 36 38 42 45 47 49 51 50 46 43 44 47 50 51 53 53 53 51 49 47 46 47 49 48
22 21 21 21 22 23 24 26 27 28 29 30 32 34 35 36 38 39 40 41 42 43 44 44 45 44 44 44 44 43 43 42 40 39 38 37 36 35 36 37 39 39 38 36 35 35 36 39 42 45 48 49 49 46 44 45 47 49 51 52 51 51 49 47 45 45 47 48 48
22 22 21 21 22 24 25 25 26 27 28 30 32 34 35 36 37 38 40 41 42 43 44 45 45 45 45 45 45 44 44 42 41 40 38 38 37 36 36 38 39 40 40 39 37 36 36 37 40 43 46 48 47 45 44 45 46 49 51 52 50 48 47 47 46 46 47 49 49
22 21 21 22 23 23 24 24 24 25 27 29 31 33 34 35 36 38 39 40 42 44 45 46 47 47 46 46 45 45 44 43 41 40 39 38 38 37 37 37 39 40 41 41 40 38 36 36 38 41 44 46 46 44 43 44 46 49 51 52 49 47 46 47 46 46 47 49 49
22 21 21 22 23 23 23 22 22 24 25 27 29 30 31 33 35 37 39 41 42 44 45 46 47 47 47 46 46 45 44 43 41 40 39 39 39 38 38 38 38 40 41 42 42 40 37 36 36 39 43 46 46 44 42 43 46 49 51 51 48 45 45 47 46 45 46 48 49
22 22 22 22 23 23 22 22 21 22 24 26 27 28 29 31 33 35 37 39 41 42 44 45 46 47 47 47 46 45 44 42 41 40 39 39 39 39 38 38 38 39 40 42 42 41 39 37 36 38 42 46 47 44 40 42 46 49 50 49 47 45 45 46 45 44 45 47 48
22 22 22 23 23 23 22 22 22 22 23 25 27 28 29 31 32 34 35 36 37 39 41 42 44 45 46 46 46 45 43 41 40 39 39 39 39 39 38 37 37 38 39 41 42 42 40 38 36 37 40 45 46 43 40 40 45 48 48 48 47 46 46 46 46 46 46 47 49
22 22 22 23 23 23 23 22 22 22 23 24 26 27 29 31 32 33 34 33 34 34 36 37 39 42 44 44 44 43 42 40 39 38 38 39 39 38 37 37 36 37 38 40 41 42 41 38 36 35 38 42 45 43 38 38 43 47 47 47 47 46 45 46 48 49 49 50 51
22 22 22 23 23 23 23 23 22 23 24 25 26 26 27 28 30 32 33 34 34 34 34 35 36 38 40 42 42 42 41 40 39 38 38 38 38 37 37 35 35 35 36 38 40 42 41 39 35 34 35 40 44 42 38 37 43 46 47 47 47 46 45 45 47 49 50 50 51
22 22 22 22 23 23 23 23 23 23 24 25 26 26 26 27 29 32 34 36 37 37 37 37 36 36 37 39 40 41 41 40 39 39 38 38 37 37 36 34 33 33 34 36 39 41 41 39 35 32 33 37 43 42 38 36 41 46 48 48 49 47 45 43 44 45 46 46 47
21 21 21 22 23 24 24 23 23 23 24 25 26 27 27 29 30 33 35 38 39 39 38 37 36 35 35 36 38 40 40 40 40 40 39 38 37 36 35 33 31 31 32 34 38 41 41 38 34 31 32 36 41 41 38 37 39 43 46 47 48 48 45 42 41 42 42 42 42
20 20 21 22 23 24 24 23 23 23 23 24 26 27 28 29 31 33 36 38 37 36 35 35 33 33 33 35 37 39 40 41 41 40 40 39 38 37 35 32 30 29 29 32 37 40 40 35 32 31 32 36 40 41 39 38 38 40 43 44 46 47 46 44 43 42 41 40 41
20 20 20 22 23 24 24 23 22 22 23 24 25 26 27 28 29 30 33 34 33 32 31 31 31 32 33 34 36 38 39 40 41 41 40 40 39 37 35 32 30 28 29 32 37 39 36 32 30 31 33 36 39 40 40 38 38 39 40 41 43 45 46 45 44 43 42 42 42
20 19 20 21 23 24 24 23 22 22 23 24 24 24 24 25 26 27 29 30 28 26 25 27 29 31 32 34 35 37 38 39 40 40 40 40 39 37 35 32 30 29 31 34 37 36 32 29 29 31 33 36 38 39 40 39 39 39 38 38 40 42 43 44 43 43 43 43 43
20 19 19 21 22 23 23 22 21 22 22 23 23 23 23 23 22 23 25 25 23 21 21 24 27 29 30 32 34 35 36 37 38 39 39 38 37 35 34 32 31 32 34 36 36 32 28 26 28 31 34 36 37 38 39 39 39 38 37 35 36 38 39 40 41 41 42 43 44
20 19 19 19 20 21 22 22 21 22 23 24 24 23 22 22 20 20 21 20 18 17 19 22 24 26 27 29 31 33 34 35 36 35 34 32 30 30 30 30 31 33 35 35 33 29 26 25 28 31 34 35 37 37 38 38 39 38 37 36 35 35 36 38 39 40 41 42 43
21 20 19 18 19 20 20 21 21 22 23 24 24 23 22 21 20 19 18 17 14 13 16 19 21 22 23 25 27 29 31 31 31 29 26 23 22 23 25 28 30 32 34 33 30 26 25 26 29 32 34 35 36 37 37 37 38 38 38 38 37 37 37 37 38 40 41 42 41
22 21 20 19 18 18 19 20 20 22 23 24 23 21 19 20 20 19 18 15 12 10 12 15 17 18 19 21 23 25 26 27 26 23 20 19 20 22 24 26 28 30 32 31 29 26 26 27 30 33 34 35 36 36 37 38 38 39 39 39 39 39 38 38 38 40 41 41 40
22 22 21 19 18 18 18 18 19 21 22 23 22 19 16 16 18 19 18 15 11 8 9 10 12 14 15 16 19 21 22 23 24 22 21 23 24 25 25 26 28 30 31 31 30 28 28 29 31 33 35 36 36 37 38 39 39 40 40 40 39 39 38 37 38 39 39 39 38
22 21 21 20 19 18 18 18 18 19 21 22 21 19 16 14 16 17 17 16 14 10 8 8 10 11 12 13 15 18 20 23 24 24 23 24 25 26 26 28 29 30 31 31 30 29 29 30 32 34 35 36 36 37 38 39 40 40 40 40 39 38 37 37 37 37 38 38 38
21 20 20 19 19 18 17 17 18 19 20 20 20 19 17 15 14 14 14 14 14 12 10 9 7 8 10 12 14 16 20 23 24 24 24 25 26 27 28 28 28 28 29 29 29 29 30 31 33 34 35 35 36 36 37 38 39 40 39 39 38 38 37 37 37 38 38 38 38
19 19 19 18 18 17 17 17 17 18 19 19 19 19 18 16 15 13 10 9 9 10 10 10 8 6 7 10 12 15 18 21 23 24 25 26 27 26 26 26 26 26 26 26 27 28 29 31 32 34 34 35 35 36 37 37 38 38 38 37 37 38 38 39 40 40 40 40 39
17 17 17 17 17 16 16 16 16 16 17 18 18 18 17 16 15 13 8 5 5 5 7 8 8 8 7 10 13 15 18 21 23 25 26 26 26 24 23 23 23 23 23 24 25 27 28 29 30 32 33 34 35 36 37 37 37 37 36 36 37 39 40 42 42 42 41 40 39
16 16 16 16 16 16 15 15 15 15 16 17 17 16 15 14 13 10 5 3 6 7 7 6 6 6 8 10 13 17 20 22 24 25 25 24 23 21 20 19 19 20 20 22 23 25 26 26 28 30 33 35 36 36 37 37 37 36 36 37 38 40 41 41 41 40 40 39 38
15 15 15 15 15 15 14 14 14 14 15 15 15 14 12 10 8 6 4 6 8 8 7 6 5 5 6 7 9 13 16 19 20 20 19 19 18 18 17 16 16 17 19 20 22 23 24 24 26 29 32 35 36 36 36 36 36 36 36 37 38 38 37 36 36 36 37 37 37
14 14 15 15 14 14 14 13 13 13 14 13 13 12 10 7 5 4 5 7 8 8 7 7 6 7 7 7 7 8 9 11 12 13 14 14 14 14 14 15 16 18 19 20 20 21 23 24 27 29 31 33 34 35 35 34 33 33 34 34 34 33 32 31 32 34 35 35 36
14 14 14 14 13 13 12 12 12 12 12 12 11 10 8 6 3 4 5 6 7 7 7 7 7 7 8 10 10 9 9 8 9 10 11 11 12 12 14 15 17 19 20 20 19 20 22 25 27 28 29 30 31 32 32 31 31 31 31 30 30 29 29 30 31 32 33 34 35
13 13 13 13 12 12 11 11 11 11 11 11 9 8 6 4 2 3 5 5 4 5 6 7 7 8 9 11 12 11 10 10 9 9 10 11 12 13 14 16 18 19 20 19 17 19 22 25 27 27 27 28 29 30 30 30 30 30 30 29 29 29 29 30 31 31 32 32 34
13 13 13 12 11 11 10 10 10 10 10 10 8 6 5 3 1 2 4 4 3 2 3 4 5 7 10 11 12 12 12 11 10 10 11 12 13 14 15 17 18 18 18 17 17 19 23 25 27 26 26 25 26 28 29 30 31 31 31 30 30 30 30 30 30 30 31 32 33
14 14 13 12 11 10 9 8 8 8 8 8 7 5 3 2 0 2 3 3 3 3 3 4 4 7 9 12 13 13 12 12 12 12 13 14 15 16 16 17 17 17 16 16 17 20 23 25 26 26 25 25 25 26 28 29 31 31 31 31 30 30 30 30 30 31 31 31 32
15 15 14 12 11 9 8 7 7 7 7 6 5 4 2 1 1 3 5 4 3 3 3 3 4 5 7 10 12 13 13 13 13 13 13 14 15 16 17 17 17 16 15 15 17 20 23 25 26 26 26 26 25 25 26 27 28 29 29 29 29 29 29 29 30 30 30 30 31
16 16 15 14 11 9 8 7 6 6 5 4 3 1 0 1 3 5 6 6 3 2 2 2 2 4 6 9 11 12 13 13 13 14 14 14 14 15 16 17 17 16 15 16 18 20 23 24 25 26 26 26 26 25 25 25 24 24 25 25 26 26 27 28 28 28 28 28 28
17 17 16 15 13 11 9 7 5 4 3 1 0 2 3 4 5 7 8 7 5 3 2 2 4 6 7 9 10 12 13 14 14 15 15 15 15 15 16 17 18 18 17 17 18 20 22 23 24 25 25 24 24 23 23 23 22 22 22 22 23 25 26 26 26 26 26 27 27
17 17 17 17 16 13 11 8 6 4 3 3 4 5 6 7 9 10 10 8 7 5 4 3 5 7 9 9 10 12 13 14 15 16 17 17 17 16 17 18 19 20 20 19 19 20 21 22 23 24 24 23 22 22 22 22 22 22 22 23 24 25 25 25 26 26 26 26 27
17 17 18 18 17 16 14 12 10 8 7 6 6 7 8 10 11 12 12 10 9 7 6 5 6 8 10 10 11 12 13 13 14 16 17 18 18 18 18 20 21 22 22 21 20 20 21 21 22 23 24 24 24 24 23 23 23 23 23 24 25 25 25 26 26 26 26 27 27
17 17 18 18 18 17 17 16 14 12 10 9 9 10 10 12 13 13 13 12 11 10 8 7 7 8 9 10 11 11 12 12 13 14 16 17 18 19 19 20 22 22 22 21 20 20 20 20 20 21 22 24 24 24 24 24 23 23 23 24 24 24 25 25 26 26 27 27 28
17 18 19 19 19 19 19 19 17 15 13 12 12 12 12 13 13 14 14 14 13 11 10 8 7 7 8 9 10 11 12 12 12 12 13 15 16 17 18 20 20 21 21 20 19 18 18 17 17 18 19 20 20 21 22 23 23 22 22 23 23 24 24 25 26 27 27 28 28
Wind_Direction
277 275 272 270 268 267 266 266 265 265 265 265 265 264 263 262 261 262 263 263 262 263 264 265 266 267 269 270 270 271 270 269 266 262 258 256 253 249 245 242 242 243 244 244 243 242 241 239 238 238 238 238 235 229 222 215 212 213 214 214 214 215 215 215 214 215 215 215 215
282 279 276 273 271 270 269 269 270 270 270 270 268 267 266 265 264 264 265 264 264 265 266 266 267 267 269 270 271 271 270 269 267 263 259 256 253 249 244 241 241 243 245 245 245 243 241 239 238 237 238 238 236 231 223 215 211 211 213 214 214 214 214 214 214 215 215 215 216
286 283 281 279 277 276 276 276 276 276 275 274 272 270 268 268 266 266 266 266 266 266 266 266 267 268 269 270 270 270 270 269 267 264 260 256 252 247 242 239 239 241 243 245 246 244 241 239 237 237 237 238 236 232 225 216 210 210 211 213 214 214 214 213 213 214 214 214 215
287 286 284 283 281 280 280 279 278 278 277 276 275 273 271 269 267 267 267 267 267 267 266 267 268 268 268 268 268 268 268 268 266 264 260 256 251 246 241 237 237 238 240 242 244 243 241 239 237 237 237 237 235 231 225 217 211 209 210 212 214 214 213 211 211 212 212 212 213
289 287 286 285 285 284 283 281 281 280 279 278 276 275 273 271 269 268 268 268 267 267 268 268 268 268 267 267 266 266 266 266 266 264 260 256 252 246 241 238 237 237 237 238 240 241 240 238 237 237 237 237 235 230 224 217 211 209 210 212 212 212 211 209 208 209 210 211 212
293 291 289 288 288 287 286 284 283 283 282 281 279 277 275 273 272 270 268 268 269 270 270 269 267 266 266 265 265 264 264 265 264 263 260 257 253 248 243 239 238 238 237 237 238 238 239 238 238 238 237 237 233 228 222 216 211 209 210 211 211 210 208 206 205 206 208 210 211
296 294 293 292 291 289 288 287 287 287 286 285 283 281 280 279 276 273 271 271 270 270 269 267 265 264 264 263 263 262 262 262 262 261 260 257 254 250 245 242 240 239 239 238 237 238 239 239 239 239 238 235 229 224 220 215 211 209 210 211 211 209 206 204 204 205 207 209 210
294 293 292 292 291 291 290 290 290 290 289 288 286 285 285 285 282 279 276 274 271 268 266 264 262 261 261 261 261 261 261 261 260 259 258 256 254 251 247 244 241 240 239 238 237 237 239 240 241 241 239 234 226 222 219 214 210 210 211 211 211 209 206 203 202 203 205 207 209
293 291 290 290 291 291 292 292 293 293 292 291 289 288 288 288 287 285 281 276 272 269 266 262 260 259 259 260 260 260 260 259 258 257 256 254 253 251 249 245 243 241 239 238 237 237 238 240 242 242 238 233 226 222 219 214 212 212 212 211 209 206 204 203 202 202 204 206 209
294 291 290 291 292 294 295 295 294 293 293 292 290 289 289 289 289 287 283 278 274 270 266 262 259 258 257 257 258 259 259 258 257 255 254 252 251 250 248 246 243 241 240 239 238 237 237 240 243 242 238 232 226 223 219 214 212 213 213 210 205 203 202 203 203 203 204 206 210
292 290 290 292 295 297 299 299 296 293 292 291 290 289 288 288 287 286 284 280 274 269 266 263 260 257 255 255 256 257 258 257 255 254 252 251 250 249 248 246 244 242 240 239 238 238 238 240 242 241 236 231 226 222 218 213 211 213 213 210 205 202 202 203 204 205 206 209 212
291 290 290 292 296 300 302 301 298 292 288 286 285 285 285 285 286 287 285 281 275 270 266 263 260 257 255 254 254 254 255 255 253 252 250 250 249 248 248 247 245 243 241 240 239 239 239 240 241 240 236 230 226 222 216 210 210 212 215 214 210 205 201 201 203 206 208 211 212
292 290 291 293 297 301 303 301 297 291 284 280 279 280 281 283 286 287 286 283 278 272 267 262 259 256 253 252 252 252 252 252 251 250 249 248 248 248 248 248 246 243 241 239 239 239 239 240 241 240 236 231 226 221 215 209 210 213 216 218 215 208 203 201 202 204 206 208 210
294 292 292 294 297 300 302 301 298 291 284 278 277 278 280 282 284 285 284 282 279 273 267 261 256 253 251 250 249 249 249 249 249 248 248 247 247 247 248 247 246 243 240 239 238 238 238 240 240 239 235 230 225 221 215 208 208 212 216 218 217 212 206 202 201 201 202 203 204
297 295 294 295 296 298 300 301 299 294 288 281 278 277 279 280 281 281 281 280 279 274 267 259 253 249 248 248 247 247 247 246 246 245 245 246 246 246 246 246 244 241 238 238 238 237 237 238 239 237 233 228 224 220 214 206 205 209 214 216 216 213 209 204 201 200 200 200 202
300 297 295 294 294 295 297 299 300 298 294 287 282 279 279 280 281 281 281 281 280 276 269 259 252 248 246 245 245 244 243 243 242 242 242 243 243 244 244 243 240 237 236 237 237 235 235 237 237 234 230 226 223 219 213 205 202 205 209 212 215 215 213 209 205 203 203 204 206
302 298 295 293 292 293 295 298 300 301 298 293 288 285 284 285 285 285 285 284 281 276 269 260 252 247 244 243 242 241 240 239 238 239 239 240 240 241 242 241 237 234 234 235 234 233 234 236 235 231 226 223 221 218 213 206 203 204 206 208 211 213 214 212 209 207 207 209 211
304 299 295 292 290 291 293 297 300 301 300 297 295 293 293 294 293 291 289 286 282 275 266 257 251 246 244 242 240 239 237 236 236 236 237 238 240 241 242 240 236 233 232 231 230 230 231 234 231 227 223 220 219 216 212 207 206 206 206 205 207 209 210 211 210 210 211 213 214
306 300 295 291 289 290 292 295 298 300 300 299 300 303 305 305 301 296 291 287 281 271 260 252 248 245 243 241 239 238 236 235 235 236 238 239 241 242 242 239 235 231 228 226 225 227 230 231 227 223 220 217 216 214 211 207 207 208 208 207 207 207 209 210 212 214 215 216 217
309 304 298 292 289 289 291 293 295 297 298 299 303 311 317 317 311 303 297 291 281 267 254 247 244 242 240 239 237 236 235 234 235 236 238 240 241 241 239 236 232 228 223 220 222 227 230 229 224 220 217 215 213 211 208 205 206 208 211 212 212 213 213 215 216 218 220 220 218
312 307 301 295 291 290 290 291 293 294 296 299 306 316 325 326 320 312 305 296 283 264 248 241 236 233 231 231 232 232 232 232 233 234 234 236 239 239 236 231 226 221 218 218 224 230 231 227 222 217 214 212 210 208 204 202 204 207 211 214 216 217 218 219 221 222 223 221 218
314 310 306 301 297 294 292 291 292 293 294 298 307 318 327 329 324 318 310 300 285 260 240 231 225 221 219 220 222 225 227 227 225 221 222 229 236 236 230 223 217 215 217 222 229 233 231 224 218 214 211 209 207 204 202 202 204 208 211 213 215 217 219 220 222 223 222 220 216
316 313 310 307 304 300 297 294 293 293 295 298 306 315 324 327 324 318 310 300 289 260 230 216 208 205 205 208 212 216 218 217 210 207 212 224 230 227 219 213 213 217 222 227 230 230 227 220 214 210 207 206 203 201 201 204 208 211 212 212 213 215 217 218 221 221 220 217 215
319 316 314 311 309 305 302 299 297 296 297 299 305 311 316 318 321 318 310 301 293 275 242 215 196 189 188 193 199 204 205 203 199 199 205 214 216 213 210 212 218 224 228 228 227 224 219 214 210 207 205 203 201 200 203 208 212 213 213 212 212 213 215 217 219 219 218 216 217
321 319 317 315 313 310 306 304 301 300 301 303 306 308 310 311 316 316 311 302 299 292 277 257 229 198 184 182 187 192 195 195 192 193 196 201 204 206 212 219 226 229 228 225 222 217 211 207 206 204 202 200 199 201 204 210 213 214 214 213 213 214 215 217 218 218 218 218 219
324 323 321 320 317 314 311 309 306 305 306 308 309 309 309 311 316 317 309 292 293 296 293 282 269 243 204 185 183 187 190 191 190 191 193 199 205 212 219 224 225 223 221 218 214 210 206 204 203 202 201 200 201 204 207 212 214 214 214 214 215 215 216 216 216 216 216 217 219
328 328 326 324 322 319 317 315 313 312 313 314 315 313 312 315 320 321 308 254 242 255 267 267 261 246 218 195 189 189 192 194 195 198 203 209 216 221 223 219 216 213 212 210 207 205 204 203 203 202 201 202 205 209 212 214 214 213 213 213 214 215 215 213 212 211 212 213 215
335 333 330 328 326 323 322 321 320 320 320 321 320 319 317 319 324 331 332 184 185 195 208 217 222 219 212 207 203 199 198 201 205 209 214 219 222 222 217 209 205 203 203 202 203 203 204 204 203 202 202 205 208 211 213 214 213 212 211 211 212 212 211 209 208 207 209 210 212
340 337 334 332 329 327 326 327 326 327 327 327 326 324 322 320 329 353 43 125 150 165 173 171 163 167 181 194 199 198 198 201 205 208 211 212 211 209 204 197 193 193 196 200 202 203 204 203 202 202 202 204 207 210 211 211 210 210 209 209 209 208 206 205 206 208 210 211 212
346 343 339 335 332 330 329 331 332 332 332 331 330 327 323 319 339 25 69 107 131 147 156 153 150 149 150 148 151 164 174 177 178 182 185 188 189 189 189 188 186 188 193 201 204 203 202 200 199 199 199 201 203 205 206 206 205 206 206 206 205 204 204 206 210 213 214 214 213
355 351 345 340 335 333 333 333 334 334 335 334 331 326 321 320 1 56 75 95 121 138 150 155 158 156 149 142 137 137 139 141 145 153 160 165 170 176 184 188 186 188 193 202 205 202 197 194 193 192 192 194 198 200 200 201 201 202 203 204 203 203 206 210 215 217 218 216 213
3 358 353 347 342 338 335 334 334 335 337 337 334 326 318 317 12 72 79 82 106 132 149 157 161 161 156 150 144 138 134 133 138 147 156 164 171 178 184 188 187 189 194 202 203 197 192 190 188 186 185 186 190 193 196 197 198 199 201 202 202 204 207 211 216 218 218 215 212
14 9 3 357 351 344 339 336 335 337 340 342 338 330 319 314 354 80 78 62 62 91 121 136 148 154 157 157 153 148 142 140 144 153 164 173 180 184 186 187 187 190 195 201 198 193 189 188 187 186 186 186 187 189 191 193 195 197 198 198 200 203 207 212 216 217 215 213 213
24 21 16 9 2 354 347 341 338 337 339 341 340 337 330 319 55 97 85 61 31 35 62 87 116 139 152 158 159 157 153 150 153 161 171 180 186 190 190 190 190 193 197 199 194 190 189 189 190 191 193 193 192 191 191 192 193 194 195 198 202 207 211 214 216 216 214 214 216
32 31 27 21 14 6 357 348 340 335 333 333 334 336 338 329 135 117 105 90 51 24 36 68 99 129 146 156 161 162 160 158 160 166 173 181 187 191 192 191 191 194 197 198 194 191 190 192 194 196 198 198 197 195 193 192 192 193 195 200 204 209 213 216 217 217 217 218 221
40 39 36 33 28 21 12 1 347 335 328 325 322 323 325 151 140 129 121 115 111 77 51 78 109 129 140 150 157 160 160 160 161 164 168 173 179 183 184 184 184 187 191 194 191 190 191 193 196 198 198 198 197 195 194 193 193 195 198 202 205 209 212 215 216 218 219 222 225
48 47 45 43 42 39 34 23 9 355 345 342 109 139 144 148 144 139 134 131 133 128 111 121 130 132 135 143 149 153 154 157 160 160 160 161 165 169 171 170 171 175 180 183 184 185 188 191 194 195 194 194 194 194 194 195 197 200 203 205 208 211 213 215 217 219 221 223 226
56 55 54 52 52 52 51 49 48 49 61 91 120 132 141 147 145 143 141 141 139 137 137 142 135 133 135 143 150 151 151 154 157 158 157 158 161 164 164 162 164 167 170 172 175 179 183 186 189 190 191 192 193 195 197 199 202 205 207 209 211 213 215 216 218 219 221 223 224
62 62 61 60 59 60 62 65 68 73 81 98 115 129 137 142 140 139 139 139 139 141 146 150 138 132 136 146 154 156 155 155 156 157 159 161 164 166 166 165 165 165 166 168 171 175 179 183 186 189 191 193 195 198 201 204 206 208 210 212 213 214 215 216 218 219 221 222 224
67 68 69 68 67 67 69 72 75 81 89 100 112 121 128 132 132 133 133 134 137 142 148 152 143 135 138 148 156 159 159 159 157 157 159 162 166 169 171 170 167 166 166 168 172 176 180 184 187 190 192 195 197 200 203 206 209 211 213 214 215 216 216 217 218 220 223 224 225
71 74 75 75 74 74 75 76 80 86 94 102 107 114 121 125 126 126 127 130 134 140 147 153 153 149 149 155 160 163 163 162 162 160 159 160 164 167 170 171 169 167 167 170 173 176 179 183 186 189 193 196 199 201 204 207 210 214 216 218 219 220 221 222 223 225 227 228 229